RADUGA-1M 3

Last updated on Mon Oct 14 2024 00:02:39 GMT+0000 (Coordinated Universal Time)

1 39375U 13062A 24287.48500583 .00000157 00000+0 00000+0 0 9996 2 39375 4.3963 79.7902 0003661 297.5172 214.8379 1.00271048 39972
UTC large
Height (km)
Speed (km/s)
/
Latitude / Longitude
Inclination (degrees)
Orbital Period (minutes)
Azimuth
Elevation
Range (km)
Doppler Factor

Next 0 passes for location: London (51.5072 / 0.1276)

Sorry there are no passes over London.